Date String (YYYY-MM-DD hh:mm:ss) UTC,Instrument flags,absolute air pressure of the measurement (hPa),sample flow rate (lpm),inlet stack bypass flow (lpm),air temperature of the measurement (°C),ambient temperature measured by the external sensor (°C),aerosol sample conditioner tube jacket temperature (°C),OPC LED temperature (°C),internal box temperature (°C),relative humidity of the measurement (%),span deviation,mass concentration of particles derived from Lorenz-Mie calculation of OPC scattering (μg/m³),mass concentration of particles derived from Lorenz-Mie calculation of OPC scattering (μg/m³),mass concentration of particles derived from Lorenz-Mie calculation of OPC scattering (μg/m³)
DateTimeUTC,F1_M11,P_M11,Q1_M11,Q2_M11,T1_M11,T2_M11,T3_M11,T4_M11,T5_M11,U1_M11,ZSPAN_M11,X0_M11,X2_M11,X1_M11
2024-05-26 06:00:00,SystemResetWarning,0822.4,5.00,000.00,028.9,027.9,000.0,037.5,030.6,016.5,0000.0,0000.88,0000.43,0000.22
2024-05-26 06:01:00,SystemResetWarning,0822.4,4.99,000.00,028.9,027.8,000.0,037.5,030.5,016.6,0000.0,0000.84,0000.42,0000.23
2024-05-26 06:02:00,SystemResetWarning,0822.3,5.00,000.00,028.9,027.8,000.0,037.5,030.5,016.6,0000.0,0000.74,0000.38,0000.21
2024-05-26 06:03:00,SystemResetWarning,0822.2,5.00,000.00,028.8,027.8,000.0,037.4,030.5,016.5,0000.0,0000.65,0000.36,0000.21
2024-05-26 06:04:00,SystemResetWarning,0822.2,5.01,000.00,028.8,027.8,000.0,037.4,030.5,016.5,0000.0,0000.68,0000.36,0000.20
2024-05-26 06:05:00,SystemResetWarning,0822.3,5.00,000.00,028.8,027.7,000.0,037.4,030.4,016.5,0000.0,0000.71,0000.36,0000.19
2024-05-26 06:06:00,SystemResetWarning,0822.2,5.01,000.00,028.8,027.7,000.0,037.4,030.4,016.5,0000.0,0000.63,0000.34,0000.19
2024-05-26 06:07:00,SystemResetWarning,0822.2,5.00,000.00,028.8,027.7,000.0,037.4,030.4,016.6,0000.0,0000.57,0000.32,0000.18
2024-05-26 06:08:00,SystemResetWarning,0822.1,4.99,000.00,028.8,027.7,000.0,037.4,030.4,016.4,0000.0,0000.52,0000.30,0000.18
2024-05-26 06:09:00,SystemResetWarning,0822.1,4.99,000.00,028.7,027.7,000.0,037.3,030.4,016.5,0000.0,0000.40,0000.25,0000.17
2024-05-26 06:10:00,SystemResetWarning,0822.1,5.01,000.00,028.7,027.6,000.0,037.3,030.3,016.4,0000.0,0000.39,0000.24,0000.17
2024-05-26 06:11:00,SystemResetWarning,0822.2,5.01,000.00,028.7,027.6,000.0,037.3,030.3,016.5,0000.0,0000.43,0000.25,0000.17
2024-05-26 06:12:00,SystemResetWarning,0822.2,5.00,000.00,028.7,027.6,000.0,037.3,030.3,016.5,0000.0,0000.42,0000.24,0000.16
2024-05-26 06:13:00,SystemResetWarning,0822.2,4.99,000.00,028.7,027.6,000.0,037.3,030.3,016.3,0000.0,0000.50,0000.29,0000.16
2024-05-26 06:14:00,SystemResetWarning,0822.1,4.98,000.00,028.6,027.6,000.0,037.2,030.3,016.3,0000.0,0000.51,0000.29,0000.15
2024-05-26 06:15:00,SystemResetWarning,0822.1,5.01,000.00,028.6,027.6,000.0,037.2,030.3,016.2,0000.0,0000.50,0000.29,0000.15
2024-05-26 06:16:00,SystemResetWarning,0822.1,5.00,000.00,028.6,027.6,000.0,037.2,030.3,016.1,0000.0,0000.43,0000.27,0000.16
2024-05-26 06:17:00,SystemResetWarning,0822.1,5.00,000.00,028.6,027.5,000.0,037.2,030.3,016.2,0000.0,0000.49,0000.29,0000.16
2024-05-26 06:18:00,SystemResetWarning,0822.1,5.00,000.00,028.6,027.5,000.0,037.2,030.2,016.2,0000.0,0000.47,0000.27,0000.16
2024-05-26 06:19:00,SystemResetWarning,0822.1,5.01,000.00,028.6,027.5,000.0,037.2,030.2,016.1,0000.0,0000.50,0000.27,0000.16
2024-05-26 06:20:00,SystemResetWarning,0822.1,5.00,000.00,028.5,027.5,000.0,037.2,030.2,016.3,0000.0,0000.65,0000.29,0000.16
2024-05-26 06:21:00,SystemResetWarning,0822.1,4.99,000.00,028.5,027.5,000.0,037.1,030.2,016.3,0000.0,0000.65,0000.29,0000.16
2024-05-26 06:22:00,SystemResetWarning,0822.1,4.99,000.00,028.5,027.5,000.0,037.1,030.2,016.4,0000.0,0000.63,0000.29,0000.17
2024-05-26 06:23:00,SystemResetWarning,0822.1,5.00,000.00,028.5,027.5,000.0,037.1,030.2,016.3,0000.0,0000.61,0000.28,0000.17
2024-05-26 06:24:00,SystemResetWarning,0822.1,5.01,000.00,028.5,027.5,000.0,037.1,030.2,016.4,0000.0,0000.64,0000.27,0000.17
2024-05-26 06:25:00,SystemResetWarning,0822.1,5.01,000.00,028.5,027.5,000.0,037.0,030.2,016.4,0000.0,0000.67,0000.28,0000.17
2024-05-26 06:26:00,SystemResetWarning,0822.0,4.99,000.00,028.5,027.6,000.0,037.0,030.2,016.3,0000.0,0000.71,0000.30,0000.17
2024-05-26 06:27:00,SystemResetWarning,0822.0,4.98,000.00,028.5,027.6,000.0,037.0,030.2,016.2,0000.0,0000.83,0000.33,0000.18
2024-05-26 06:28:00,SystemResetWarning,0822.1,5.00,000.00,028.5,027.6,000.0,037.0,030.2,016.2,0000.0,0000.87,0000.34,0000.17
2024-05-26 06:29:00,SystemResetWarning,0822.1,5.01,000.00,028.5,027.6,000.0,037.0,030.2,016.2,0000.0,0000.89,0000.35,0000.17
2024-05-26 06:30:00,SystemResetWarning,0822.1,5.01,000.00,028.5,027.6,000.0,037.0,030.2,016.1,0000.0,0000.89,0000.35,0000.18
2024-05-26 06:31:00,SystemResetWarning,0822.1,5.00,000.00,028.5,027.7,000.0,037.0,030.2,016.1,0000.0,0000.74,0000.35,0000.17
2024-05-26 06:32:00,SystemResetWarning,0822.0,4.99,000.00,028.5,027.7,000.0,037.0,030.3,015.9,0000.0,0000.75,0000.35,0000.17
2024-05-26 06:33:00,SystemResetWarning,0822.0,4.99,000.00,028.6,027.7,000.0,037.0,030.3,015.9,0000.0,0000.80,0000.35,0000.17
2024-05-26 06:34:00,SystemResetWarning,0821.9,5.00,000.00,028.6,027.7,000.0,037.0,030.3,015.8,0000.0,0000.82,0000.34,0000.16
2024-05-26 06:35:00,SystemResetWarning,0822.0,5.01,000.00,028.6,027.7,000.0,036.9,030.3,015.6,0000.0,0000.72,0000.31,0000.15
2024-05-26 06:36:00,SystemResetWarning,0822.0,5.00,000.00,028.6,027.7,000.0,036.9,030.3,015.5,0000.0,0000.70,0000.30,0000.15
2024-05-26 06:37:00,SystemResetWarning,0821.9,4.99,000.00,028.6,027.8,000.0,037.0,030.3,015.4,0000.0,0000.63,0000.27,0000.14
2024-05-26 06:38:00,SystemResetWarning,0822.0,4.99,000.00,028.6,027.8,000.0,037.0,030.3,015.4,0000.0,0000.50,0000.23,0000.13
2024-05-26 06:39:00,SystemResetWarning,0821.9,5.01,000.00,028.6,027.8,000.0,037.0,030.3,015.5,0000.0,0000.40,0000.20,0000.13
2024-05-26 06:40:00,SystemResetWarning,0822.0,5.01,000.00,028.6,027.8,000.0,037.0,030.3,015.5,0000.0,0000.39,0000.19,0000.13
2024-05-26 06:41:00,SystemResetWarning,0822.0,5.01,000.00,028.6,027.8,000.0,036.9,030.4,015.5,0000.0,0000.39,0000.19,0000.12
2024-05-26 06:42:00,SystemResetWarning,0822.1,4.99,000.00,028.6,027.8,000.0,037.0,030.4,015.7,0000.0,0000.40,0000.18,0000.12
2024-05-26 06:43:00,SystemResetWarning,0822.1,4.99,000.00,028.6,027.8,000.0,037.0,030.4,016.2,0000.0,0000.40,0000.18,0000.12
2024-05-26 06:44:00,SystemResetWarning,0822.1,5.00,000.00,028.6,027.8,000.0,037.0,030.4,016.6,0000.0,0000.39,0000.19,0000.12
2024-05-26 06:45:00,SystemResetWarning,0822.1,5.02,000.00,028.6,027.8,000.0,037.0,030.4,016.4,0000.0,0000.39,0000.21,0000.13
2024-05-26 06:46:00,SystemResetWarning,0822.2,5.00,000.00,028.6,027.8,000.0,037.0,030.4,016.4,0000.0,0000.43,0000.23,0000.13
2024-05-26 06:47:00,SystemResetWarning,0822.2,5.00,000.00,028.6,027.8,000.0,037.0,030.3,016.4,0000.0,0000.63,0000.23,0000.14
2024-05-26 06:48:00,SystemResetWarning,0822.2,5.00,000.00,028.6,027.8,000.0,037.0,030.4,016.3,0000.0,0000.64,0000.23,0000.15
2024-05-26 06:49:00,SystemResetWarning,0822.3,5.00,000.00,028.6,027.8,000.0,037.0,030.4,016.3,0000.0,0000.64,0000.24,0000.15
2024-05-26 06:50:00,SystemResetWarning,0822.4,5.00,000.00,028.6,027.8,000.0,036.9,030.4,016.5,0000.0,0000.71,0000.27,0000.16
2024-05-26 06:51:00,SystemResetWarning,0822.4,5.00,000.00,028.6,027.8,000.0,037.0,030.4,016.5,0000.0,0000.99,0000.33,0000.18
2024-05-26 06:52:00,SystemResetWarning,0822.4,5.00,000.00,028.6,027.8,000.0,036.9,030.3,016.5,0000.0,0001.27,0000.37,0000.18
2024-05-26 06:53:00,SystemResetWarning,0822.4,5.00,000.00,028.6,027.8,000.0,036.9,030.3,016.6,0000.0,0002.03,0000.41,0000.19
2024-05-26 06:54:00,SystemResetWarning,0822.5,5.00,000.00,028.6,027.8,000.0,036.9,030.3,016.6,0000.0,0002.07,0000.43,0000.20
2024-05-26 06:55:00,SystemResetWarning,0822.4,5.00,000.00,028.6,027.8,000.0,036.9,030.3,016.3,0000.0,0002.05,0000.43,0000.21
2024-05-26 06:56:00,SystemResetWarning,0822.4,5.02,000.00,028.6,027.8,000.0,036.9,030.3,016.1,0000.0,0002.04,0000.43,0000.21
2024-05-26 06:57:00,SystemResetWarning,0822.4,5.01,000.00,028.6,027.8,000.0,036.9,030.3,016.2,0000.0,0002.09,0000.46,0000.22
2024-05-26 06:58:00,SystemResetWarning,0822.4,5.00,000.00,028.6,027.8,000.0,036.9,030.3,016.2,0000.0,0001.97,0000.50,0000.23
2024-05-26 06:59:00,SystemResetWarning,0822.4,5.00,000.00,028.6,027.8,000.0,036.9,030.3,016.2,0000.0,0002.24,0000.53,0000.24
